Location: Dodge City Co - Operative Exchange Grain Elevator Number 8
(38.1218°N, 99.7124°W)
Time: 01:36:13
(UTC+00:00)

CZ-2C R/B - Pass Details

Date: 03 March 2021
Orbit: 783 x 871 km, 98.2° (Epoch: 14 April)

Event Time Altitude Azimuth Distance (km) Brightness Sun altitude
Rises 12:29:07 0° 153° (SSE) 3,424 6.3 -8.3°
Reaches altitude 10° 12:31:31 10° 149° (SSE) 2,499 5.6 -7.8°
Maximum altitude 12:36:56 55° 73° (ENE) 1,040 3.7 -6.8°
Drops below altitude 10° 12:42:25 10° 357° (N) 2,526 5.1 -5.7°
Sets 12:44:51 0° 353° (N) 3,464 5.8 -5.2°
